This demonstration page uses our WeatherBlox Daily Observations layout. Learn more.

40.92945, -100.16068

Hourly Observations for February 24, 2019

Temp ( °F °C ) Dew Point ( °F °C ) Humidity (%) Winds ( mph kmh ) Pressure ( in mb ) Visibility ( mi km ) Precip ( " mm )
12:15 am 00:15 Clear 22 -5.5 12 -11 66 66 WNW 18 30 30.19 1022 10 16.0934 0 0
12:35 am 00:35 Clear 22 -5.5 12 -11.1 65 65 WNW 18 30 30.2 1023 10 16.0934 0 0
12:55 am 00:55 Clear 21 -6.2 11 -11.5 66 66 WNW 17 28 30.22 1023 10 16.0934 0 0
1:15 am 01:15 Clear 19 -7.4 10 -12 70 70 WNW 14 22 30.23 1024 10 16.0934 0 0
1:35 am 01:35 Clear 17 -8.5 9 -12.7 72 72 WNW 14 22 30.26 1025 10 16.0934 0 0
1:55 am 01:55 Clear 18 -7.6 10 -12.2 70 70 WNW 15 24 30.28 1025 10 16.0934 0 0
2:15 am 02:15 Clear 17 -8.5 9 -12.8 71 71 WNW 16 26 30.29 1026 10 16.0934 0 0
2:35 am 02:35 Clear 18 -7.7 10 -12.4 69 69 WNW 15 24 30.29 1026 10 16.0934 0 0
2:55 am 02:55 Clear 19 -7.5 10 -12.2 69 69 WNW 15 24 30.29 1026 10 16.0934 0 0
3:15 am 03:15 Clear 19 -7.1 10 -12 68 68 WNW 13 20 30.29 1026 10 16.0934 0 0
3:35 am 03:35 Clear 19 -7.5 10 -12.2 69 69 NW 13 20 30.3 1026 10 16.0934 0 0
3:55 am 03:55 Clear 17 -8.5 9 -12.9 71 71 NW 12 19 30.32 1027 10 16.0934 0 0
4:15 am 04:15 Clear 14 -9.9 8 -13.6 75 75 WNW 14 22 30.34 1027 10 16.0934 0 0
4:35 am 04:35 Clear 16 -9.1 9 -13 74 74 WNW 15 24 30.35 1028 10 16.0934 0 0
4:55 am 04:55 Clear 16 -8.7 9 -12.7 73 73 WNW 13 20 30.37 1028 10 16.0934 0 0
5:15 am 05:15 Clear 15 -9.4 8 -13.3 74 74 NW 14 22 30.39 1029 10 16.0934 0 0
5:35 am 05:35 Clear 12 -11.1 5 -14.8 74 74 NW 13 20 30.4 1030 10 16.0934 0 0
5:55 am 05:55 Clear 12 -11.1 6 -14.2 78 78 NW 14 22 30.41 1030 10 16.0934 0 0
6:15 am 06:15 Clear 11 -11.8 5 -14.9 78 78 NW 5 7 30.42 1030 10 16.0934 0 0
6:35 am 06:35 Clear 9 -12.9 4 -15.7 80 80 NW 8 13 30.44 1031 10 16.0934 0 0
6:55 am 06:55 Clear 8 -13.6 3 -16.2 81 81 WNW 10 17 30.46 1032 10 16.0934 0 0
7:15 am 07:15 Clear 10 -12 5 -15.1 78 78 NW 13 20 30.46 1032 10 16.0934 0 0
7:35 am 07:35 Sunny 10 -12.1 4 -15.5 76 76 NW 13 20 30.49 1032 10 16.0934 0 0
7:55 am 07:55 Sunny 12 -11 5 -15.1 72 72 NNW 13 20 30.48 1032 10 16.0934 0 0
8:15 am 08:15 Sunny 12 -11.2 4 -15.5 71 71 NNW 9 15 30.5 1033 10 16.0934 0 0
8:35 am 08:35 Sunny 12 -11.1 5 -14.9 74 74 WNW 12 19 30.5 1033 10 16.0934 0 0
8:55 am 08:55 Sunny 13 -10.6 6 -14.6 73 73 WNW 14 22 30.52 1033 10 16.0934 0 0
9:15 am 09:15 Sunny 13 -10.5 5 -14.8 71 71 NNW 12 19 30.52 1033 10 16.0934 0 0
9:35 am 09:35 Sunny 14 -9.8 5 -14.9 67 67 NW 12 19 30.52 1034 10 16.0934 0 0
9:55 am 09:55 Sunny 15 -9.5 5 -15.1 64 64 NW 14 22 30.53 1034 10 16.0934 0 0
10:15 am 10:15 Sunny 16 -9.1 5 -15 63 63 NW 15 24 30.53 1034 10 16.0934 0 0
10:35 am 10:35 Sunny 16 -8.8 5 -15 61 61 NNW 17 28 30.53 1034 10 16.0934 0 0
10:55 am 10:55 Sunny 16 -8.7 5 -14.9 61 61 NNW 17 28 30.53 1034 10 16.0934 0 0
11:15 am 11:15 Sunny 17 -8.5 6 -14.5 62 62 NW 14 22 30.53 1034 10 16.0934 0 0
11:35 am 11:35 Sunny 17 -8.5 6 -14.4 63 63 NW 13 20 30.54 1034 10 16.0934 0 0
11:55 am 11:55 Sunny 17 -8.1 6 -14.3 61 61 NW 14 22 30.54 1034 10 16.0934 0 0
12:15 pm 12:15 Sunny 18 -8 6 -14.2 61 61 NNW 13 20 30.53 1034 10 16.0934 0 0
12:35 pm 12:35 Sunny 18 -7.7 7 -13.9 61 61 NW 13 20 30.53 1034 10 16.0934 0 0
12:55 pm 12:55 Sunny 18 -7.6 7 -13.9 61 61 NNW 12 19 30.53 1034 10 16.0934 0 0
1:15 pm 13:15 Sunny 19 -7.3 8 -13.6 61 61 NNW 10 17 30.51 1033 10 16.0934 0 0
1:35 pm 13:35 Sunny 19 -7.3 7 -13.7 61 61 NNW 12 19 30.51 1033 10 16.0934 0 0
1:55 pm 13:55 Sunny 19 -7 8 -13.5 60 60 NNW 12 19 30.49 1033 10 16.0934 0 0
2:15 pm 14:15 Sunny 19 -7 8 -13.5 60 60 NNW 9 15 30.48 1032 10 16.0934 0 0
2:35 pm 14:35 Sunny 20 -6.8 8 -13.1 61 61 N 7 11 30.48 1032 10 16.0934 0 0
2:55 pm 14:55 Sunny 20 -6.5 9 -12.9 61 61 N 8 13 30.46 1032 10 16.0934 0 0
3:15 pm 15:15 Sunny 20 -6.6 8 -13.4 59 59 N 7 11 30.47 1032 10 16.0934 0 0
3:35 pm 15:35 Sunny 20 -6.5 8 -13.1 60 60 N 6 9 30.46 1032 10 16.0934 0 0
3:55 pm 15:55 Sunny 20 -6.5 8 -13.4 58 58 N 5 7 30.45 1031 10 16.0934 0 0
4:15 pm 16:15 Sunny 20 -6.4 8 -13.4 58 58 Calm 30.46 1032 10 16.0934 0 0
4:35 pm 16:35 Sunny 20 -6.5 8 -13.2 59 59 ENE 3 6 30.46 1032 10 16.0934 0 0
4:55 pm 16:55 Sunny 21 -6.3 8 -13.2 58 58 NE 5 7 30.45 1031 10 16.0934 0 0
5:15 pm 17:15 Sunny 21 -6.3 8 -13.5 57 57 ENE 7 11 30.46 1032 10 16.0934 0 0
5:35 pm 17:35 Sunny 19 -7.1 8 -13.5 61 61 E 7 11 30.48 1032 10 16.0934 0 0
5:55 pm 17:55 Sunny 18 -8 6 -14.2 61 61 E 9 15 30.48 1032 10 16.0934 0 0
6:15 pm 18:15 Sunny 17 -8.6 6 -14.7 62 62 E 8 13 30.48 1032 10 16.0934 0 0
6:35 pm 18:35 Clear 15 -9.4 5 -15.2 63 63 E 7 11 30.51 1033 10 16.0934 0 0
6:55 pm 18:55 Clear 14 -10.2 4 -15.5 65 65 E 5 7 30.51 1033 10 16.0934 0 0
7:15 pm 19:15 Clear 12 -11.2 4 -15.8 69 69 E 7 11 30.52 1033 10 16.0934 0 0
7:35 pm 19:35 Clear 13 -10.3 4 -15.4 67 67 E 5 7 30.52 1033 10 16.0934 0 0
7:55 pm 19:55 Clear 11 -11.8 2 -16.4 69 69 E 6 9 30.52 1034 10 16.0934 0 0
8:15 pm 20:15 Clear 10 -12.4 2 -16.7 71 71 E 5 7 30.53 1034 10 16.0934 0 0
8:35 pm 20:35 Clear 9 -12.8 2 -16.8 72 72 E 8 13 30.53 1034 10 16.0934 0 0
8:55 pm 20:55 Clear 10 -12.1 2 -16.7 69 69 E 8 13 30.53 1034 10 16.0934 0 0
9:15 pm 21:15 Clear 7 -13.7 0 -18 70 70 E 6 9 30.54 1034 10 16.0934 0 0
9:35 pm 21:35 Clear 7 -13.8 0 -17.6 73 73 E 7 11 30.54 1034 10 16.0934 0 0
9:55 pm 21:55 Clear 7 -14 -1 -18.3 70 70 E 6 9 30.55 1034 10 16.0934 0 0
10:15 pm 22:15 Clear 5 -14.9 -1 -18.5 74 74 E 5 7 30.56 1035 10 16.0934 0 0
10:35 pm 22:35 Clear 6 -14.5 -1 -18.3 73 73 E 5 7 30.55 1035 10 16.0934 0 0
10:55 pm 22:55 Clear 4 -15.6 -3 -19.5 72 72 ESE 3 6 30.56 1035 10 16.0934 0 0
11:15 pm 23:15 Clear 3 -16.3 -3 -19.6 76 76 ESE 3 6 30.57 1035 10 16.0934 0 0
11:35 pm 23:35 Clear 7 -14.1 -1 -18.1 72 72 SE 6 9 30.55 1034 10 16.0934 0 0
11:55 pm 23:55 Clear 5 -14.8 -1 -18.6 73 73 ESE 6 9 30.56 1035 10 16.0934 0 0

Powered by AerisWeather